Regional Weather Roundup
Issued by NWS Columbia, SC

Home | Current Version | Previous Version | Text Only | Print | Product List | Glossary On
Versions: 1 2 3 4 5 6 7 8 9 10 11 12 13 14 15 16 17 18 19 20 21 22 23 24 25 26 27 28 29 30 31 32 33 34 35 36 37 38 39 40 41 42 43 44 45 46 47 48 49 50
000
ASUS42 KCAE 020410
RWRCAE
REGIONAL WEATHER ROUNDUP
NATIONAL WEATHER SERVICE COLUMBIA SC
1200 AM EDT THU APR 02 2015

NOTE: "FAIR" INDICATES FEW OR NO CLOUDS BELOW 12,000 FEET WITH NO
SIGNIFICANT WEATHER AND/OR OBSTRUCTIONS TO VISIBILITY.

NOT ALL STATIONS ARE QUALITY CONTROLLED BY THE NATIONAL
WEATHER SERVICE. USE DATA WITH CAUTION...ESPECIALLY
DEWPOINT OBSERVATIONS.

SCZ001>056-GAZ040-063>065-077-020500-
...UPSTATE SOUTH CAROLINA...

CITY           SKY/WX    TMP DP  RH WIND       PRES   REMARKS
ANDERSON       PTCLDY    62  43  49 E5        30.16R
LIBERTY        PTCLDY    56  45  66 E6        30.18R
SPARTANBURG    CLEAR     61  37  41 CALM      30.18R
CLEMSON        PTCLDY    65  41  41 CALM      30.18R
GREENVILLE     CLEAR     63  37  38 SE6       30.19R
GREENWOOD      CLEAR     61  44  53 SE6       30.18R
GREER          CLEAR     58  39  49 SE6       30.17R
ROCK HILL      CLEAR     59  36  42 SE7       30.21R
CHESTER        CLEAR     61  37  41 SE7       30.20R
LAURENS        CLEAR     61  48  63 SE6       30.17R


...CENTRAL SOUTH CAROLINA...

CITY           SKY/WX    TMP DP  RH WIND       PRES   REMARKS
COLUMBIA APT   CLEAR     61  47  59 SE13      30.21R
COLUMBIA OWENS CLEAR     60  47  61 SE7       30.22R
DARLINGTON     CLEAR     54  45  71 SE6       30.26R
FLORENCE       CLEAR     54  46  74 SE9       30.25R
MCENTIRE ANGB  CLEAR     56  47  71 SE7       30.22R
ORANGEBURG     CLEAR     57  50  77 SE7       30.23R
SUMTER SHAW    CLEAR     55  47  72 SE8       30.22R
NEWBERRY       CLEAR    N/A N/A N/A SE7       30.21R
AIKEN          FAIR      59  46  63 SE8       30.23R HAZE
BARNWELL       FAIR      61  54  77 E8        30.21R
MANNING        RAIN      50  45  81 CALM      30.24R
CAMDEN         FAIR      57  45  62 SE13      30.23R
LANCASTER      CLEAR     57  43  58 SE7       30.21R
WINNSBORO      CLEAR     59  46  63 SE8       30.20R


...EASTERN AND COASTAL SOUTH CAROLINA...

CITY           SKY/WX    TMP DP  RH WIND       PRES   REMARKS
MYRTLE BEACH   CLEAR     57  46  67 E13       30.29R
N MYRTLE BCH   CLEAR     57  47  69 E10       30.27R
CONWAY         FAIR      54  50  87 E5        30.27R
MARION         FAIR      52  45  76 E6        30.26R
HARTSVILLE     FAIR      54  45  71 SE7       30.25R
FLORENCE       CLEAR     54  46  74 SE9       30.25R
DARLINGTON     CLEAR     54  45  71 SE6       30.26R
CHARLESTON APT PTCLDY    58  53  84 SE8       30.24R
MOUNT PLEASANT FAIR      59  54  82 E6        30.24R
WALTERBORO     PTCLDY    54  52  94 E3        30.23R
BEAUFORT       CLEAR     61  57  87 E8        30.21R


...EASTERN GEORGIA...

CITY           SKY/WX    TMP DP  RH WIND       PRES   REMARKS
AUGUSTA BUSH F CLEAR     61  51  70 SE6       30.19R
AUGUSTA DANIEL CLEAR     64  48  56 SE15G22   30.19R
THOMSON        CLEAR     66  58  74 SE7       30.21R
WASHINGTON     FAIR      68  55  64 SE9       30.14S
CLAXTON        CLOUDY    61  59  94 E7        30.20R
SYLVANIA       MOCLDY    59  57  92 SE5       30.21R
STATESBORO     CLEAR     59  58  97 SE6       30.20S
SAVANNAH       PTCLDY    60  56  86 E7        30.21R


...SOUTHERN NORTH CAROLINA...

CITY           SKY/WX    TMP DP  RH WIND       PRES   REMARKS
CHARLOTTE      PTCLDY    60  32  34 SE12      30.21R
MONROE         CLEAR     56  38  50 VRB3      30.20R
WADESBORO      CLEAR     56  38  49 SE9       30.23R
ROCKINGHAM       N/A     55  39  56 SE9       30.25R
RUTHERFORDTON  CLEAR     52  33  47 NW3       30.21R
ASHEVILLE      CLEAR     54  34  46 S5        30.21R

$$


USA.gov is the U.S. government's official web portal to all federal, state and local government web resources and services.